Regional Weather Roundup
Issued by NWS Sterling, VA

Home | Current Version | Previous Version | Text Only | Print | Product List | Glossary On
Versions: 1 2 3 4 5 6 7 8 9 10 11 12 13 14 15 16 17 18 19 20 21 22 23 24 25 26 27 28 29 30 31 32 33 34 35 36 37 38 39 40 41 42 43 44 45 46 47 48 49 50
000
ASUS41 KLWX 262210
RWRLWX

REGIONAL WEATHER ROUNDUP
NATIONAL WEATHER SERVICE BALTIMORE MD/WASHINGTON DC
500 PM EST MON JAN 26 2015

Note: "FAIR" indicates few or no clouds below 12,000 feet
with no significant weather and/or obstructions to visibility.
 TC=TEMPERATURE CELSIUS

 * =Non NWS site. Station does not report precipitation (e.g. rain,
    snow, etc.), thunder, or fog.

DCZ001-MDZ009-015-VAZ040>042-051-053>054-262300-
WASHINGTON METRO

CITY           SKY/WX    TMP DP  RH WIND       PRES   REMARKS
WASHINGTON NAT CLOUDY    35  28  75 N14       29.73R WCI  26
DULLES         LGT SNOW  29  25  85 N12       29.73R FOG     WCI  19
ANDREWS AFB    MIX PCPN  32  30  93 N8        29.70R WCI  25
FT BELVOIR     CLOUDY    33  29  87 VRB5      29.72R
QUANTICO       LGT RAIN  34  29  82 N12       29.72R WCI  25
COLLEGE PARK*  CLOUDY    32  32 100 N7        29.73R
LEESBURG*      LGT SNOW  28  28 100 N12G17    29.75R WCI  18
MANASSAS*      CLOUDY    32  32 100 N9G16     29.73R FOG     WCI  24
GAITHERSBURG*  CLOUDY    28  25  86 N5        29.75R

$$

MDZ006>007-011-014-262300-
BALTIMORE METRO

CITY           SKY/WX    TMP DP  RH WIND       PRES   REMARKS
BWI AIRPORT    FLURRIES  31  26  82 N9        29.72R WCI  23
MD SCIENCE CTR   N/A     30  25  81 MISG      29.73S
MARTIN STATE   CLOUDY    32  28  86 N14       29.74S WCI  22
ANNAPOLIS      CLOUDY    33  27  78 NE10      29.71R WCI  25
FORT MEADE*    CLOUDY    32  28  86 NE6       29.75R

$$

MDZ012-015-019>023-262300-
MARYLAND EASTERN SHORE

CITY           SKY/WX    TMP DP  RH WIND       PRES   REMARKS
OCEAN CITY     CLOUDY    40  38  93 NE20G29   29.56F
SALISBURY      LGT RAIN  40  36  86 N12       29.61R FOG
BAY BRIDGE AP*   N/A     32  30  93 N7        29.71S
CAMBRIDGE*     CLOUDY    37  32  81 NE15G22   29.64S WCI  28
EASTON*        CLOUDY    36  36 100 NE15G23   29.71R WCI  26

$$

MDZ017>025-262300-
SOUTHERN MARYLAND

CITY           SKY/WX    TMP DP  RH WIND       PRES   REMARKS
PATUXENT RIVER DRIZZLE   36  33  89 N14       29.65S WCI  27
ST INIGOES     CLOUDY    37  32  82 N8        29.63S
LEONARDTOWN*   CLOUDY    34  32  93 N7        29.66S

$$

MDZ003>005-262300-
NORTH CENTRAL MARYLAND

CITY           SKY/WX    TMP DP  RH WIND       PRES   REMARKS
FREDERICK*     CLOUDY    28  23  80 E13       29.77R HAZE    WCI  18
HAGERSTOWN APT CLOUDY    25  20  81 N13       29.74R WCI  14
WESTMINSTER*   FLURRIES  27  23  86 NE9       29.71S WCI  17

$$

MDZ501>502-262300-
WESTERN MARYLAND

CITY           SKY/WX    TMP DP  RH WIND       PRES   REMARKS
OAKLAND*       CLOUDY    25 N/A N/A CALM      29.61R FOG
CUMBERLAND*    CLOUDY    30  30 100 CALM      29.77S

$$

VAZ025>031-262300-
SHENANDOAH VALLEY

CITY           SKY/WX    TMP DP  RH WIND       PRES   REMARKS
WINCHESTER*    LGT SNOW  30  25  80 N5        29.72R
FRONT ROYAL*   CLOUDY    30  28  93 NE5       29.70R
LURAY*         CLOUDY    32  32 100 NE12      29.68R WCI  23
NEW MARKET*    CLOUDY    31  29  94 N7        29.67S
STAUNTON*      CLOUDY    34  32  93 N6        29.66S FOG
WAYNESBORO*    CLOUDY    33  33  99 NW5       29.63S

$$

WVZ021-048>050-054>055-262300-
EASTERN WEST VIRGINIA PANHANDLE

CITY           SKY/WX    TMP DP  RH WIND       PRES   REMARKS
MARTINSBURG    LGT SNOW  27  22  81 N12       29.74R WCI  17
PETERSBURG*    LGT SNOW  32  31  97 CALM      29.71S

$$

VAZ036>039-050-262300-
CENTRAL FOOTHILLS

CITY           SKY/WX    TMP DP  RH WIND       PRES   REMARKS
CHARLOTTESVILL CLOUDY    34  32  92 NE8       29.67R FOG     WCI  27
CULPEPER*      NOT AVBL
ORANGE*        CLOUDY    34  32  93 N9        29.71R WCI  26
GORDONSVILLE*  CLOUDY    33  32  96 N8        29.68R WCI  25
WARRENTON*     CLOUDY    33  33 100 N8        29.71R WCI  26

$$

VAZ055>057-262300-
NORTH AND CENTRAL PIEDMONT

CITY           SKY/WX    TMP DP  RH WIND       PRES   REMARKS
FREDERICKSBRG* CLOUDY    35  35 100 N8G16     29.70R WCI  28
STAFFORD*      CLOUDY    33  33 100 N6        29.75R

$$

NCZ024-NYZ072-PAZ021-071-VAZ022-071-262300-
OTHER REGIONAL OBSERVATIONS

CITY           SKY/WX    TMP DP  RH WIND       PRES   REMARKS
NEW YORK CITY  SNOW      26  21  81 NE13G25   29.85F VSB 1/2 WCI  15
PHILADELPHIA   CLOUDY    27  20  75 NE22G29   29.78R WCI  13
PITTSBURGH     LGT SNOW  25  22  88 NW10      29.74R WCI  15
ROANOKE        LGT RAIN  41  38  89 N6        29.65R FOG
RICHMOND       CLOUDY    38  37  97 N14G21    29.65R FOG
RALEIGH        MOCLDY    47  40  76 N3        29.61R

$$

ANZ530>537-262300-
MARINE OBSERVATIONS

STATION/POSITION TIME  TEMP    WIND        PRES
                       AIR SEA DIR/SP/G
                 (UTC) (F)     (DEG/KT/KT) (MB)
THOMAS PT LIGHT  2200   33 37   30/ 20/ 21 1006.6R
BALT KEY BRIDGE  2200   31      10/ 11/ 13 1006.6R
COVE POINT       2200   35     360/ 12/ 17 1004.1S
LEWISETTA        2200   36 39  350/  9/ 12 1003.5R
SOLOMONS ISLAND  2200      39                N/A
PINEY POINT      2200           10/ 11/ 12   N/A

$$



USA.gov is the U.S. government's official web portal to all federal, state and local government web resources and services.